Location: Newark
(43.7333°N, 7.4000°E)
Time: 14:02:04
(UTC+00:00)

N. Korean satellite - Visible Passes

Search period start: 23 September 2020 00:00
Search period end: 03 October 2020 00:00
Orbit: 455 x 503 km, 97.2° (Epoch: 22 September)

Date Brightness Start Highest point End Pass type
(mag) Time Alt. Az. Time Alt. Az. Time Alt. Az.
23 Sep 8.4 04:39:42 10° NNE 04:43:08 36° E 04:46:28 10° SSE visible
24 Sep 9.7 04:14:23 10° NE 04:16:58 18° E 04:19:29 10° SE visible
27 Sep 9.0 04:29:13 10° NE 04:32:21 27° E 04:35:25 10° SSE visible
28 Sep 9.9 04:04:17 10° ENE 04:06:08 13° E 04:07:58 10° ESE visible
30 Sep 8.1 04:44:14 10° NNE 04:47:41 41° E 04:51:02 10° S visible
01 Oct 9.6 04:18:47 10° NE 04:21:31 20° E 04:24:11 10° SE visible
